| time (UTC) | temp C | wind direction | speed KPH | gust KPH | rain 1hr cm | rain 24hr cm | rain mn cm | humidity % | barometer mb |
| 20260507170158 | 22 | 170 | 0.0 | 0.0 | 0.33 | 2.41 | 2.41 | 94 | 1012.3 |
| 20260507164658 | 22 | 60 | 0.0 | 0.0 | 0.13 | 2.18 | 2.18 | 94 | 1013.5 |
| 20260507163157 | 22 | 60 | 0.0 | 0.0 | 0.03 | 2.08 | 2.08 | 94 | 1012.9 |
| 20260507161657 | 21 | 61 | 0.0 | 3.2 | 0.10 | 2.08 | 2.08 | 94 | 1012.7 |
| 20260507160157 | 21 | 189 | 0.0 | 0.0 | 1.30 | 2.08 | 2.08 | 94 | 1013.3 |
| 20260507154657 | 21 | 208 | 0.0 | 0.0 | 1.75 | 2.06 | 2.06 | 95 | 1013.5 |
| 20260507153156 | 20 | 230 | 0.0 | 0.0 | 1.75 | 2.06 | 2.06 | 95 | 1013.3 |
| 20260507151656 | 20 | 165 | 3.2 | 4.8 | 1.68 | 1.98 | 1.98 | 95 | 1013.3 |
| 20260507150157 | 21 | 11 | 9.7 | 12.9 | 0.48 | 0.79 | 0.79 | 93 | 1013.8 |
| 20260507144655 | 23 | 24 | 3.2 | 3.2 | 0.00 | 0.30 | 0.30 | 94 | 1013.7 |
| 20260507143156 | 24 | 11 | 0.0 | 0.0 | 0.00 | 0.30 | 0.30 | 95 | 1012.4 |
| 20260507141655 | 24 | 94 | 0.0 | 0.0 | 0.30 | 0.30 | 0.30 | 95 | 1011.6 |
| 20260507140155 | 24 | 235 | 0.0 | 4.8 | 0.30 | 0.30 | 0.30 | 95 | 1011.9 |
| 20260507134655 | 24 | 12 | 0.0 | 0.0 | 0.30 | 0.30 | 0.30 | 95 | 1011.9 |
| 20260507133154 | 24 | 34 | 0.0 | 3.2 | 0.30 | 0.30 | 0.30 | 93 | 1012.2 |
| 20260507130154 | 26 | 220 | 0.0 | 8.0 | 0.00 | 0.00 | 0.00 | 88 | 1011.6 |
| 20260507124654 | 25 | 181 | 0.0 | 3.2 | 0.00 | 0.00 | 0.00 | 90 | 1011.9 |
| 20260507123154 | 25 | 186 | 0.0 | 0.0 | 0.00 | 0.00 | 0.00 | 91 | 1011.8 |
| 20260507121654 | 25 | 340 | 0.0 | 4.8 | 0.00 | 0.00 | 0.00 | 91 | 1011.6 |
| 20260507120153 | 24 | 263 | 3.2 | 4.8 | 0.00 | 0.00 | 0.00 | 92 | 1011.2 |
| 20260507114653 | 24 | 224 | 8.0 | 9.7 | 0.00 | 0.00 | 0.00 | 92 | 1010.9 |
| 20260507111653 | 24 | 215 | 0.0 | 0.0 | 0.00 | 0.00 | 0.00 | 92 | 1010.8 |
| 20260507110152 | 24 | 212 | 0.0 | 0.0 | 0.00 | 0.00 | 0.00 | 92 | 1011.0 |
| 20260507104652 | 24 | 236 | 0.0 | 3.2 | 0.00 | 0.00 | 0.00 | 92 | 1010.4 |
| 20260507103152 | 24 | 130 | 0.0 | 3.2 | 0.00 | 0.00 | 0.00 | 93 | 1010.3 |
| 20260507100151 | 24 | 215 | 0.0 | 4.8 | 0.00 | 0.00 | 0.00 | 93 | 1010.1 |
| 20260507094651 | 24 | 165 | 4.8 | 8.0 | 0.00 | 0.00 | 0.00 | 94 | 1010.3 |
| 20260507093151 | 24 | 78 | 8.0 | 8.0 | 0.00 | 0.00 | 0.00 | 94 | 1010.2 |
| 20260507091651 | 23 | 158 | 9.7 | 14.5 | 0.00 | 0.00 | 0.00 | 94 | 1010.0 |
| 20260507090150 | 24 | 200 | 4.8 | 8.0 | 0.00 | 0.00 | 0.00 | 94 | 1009.9 |
| 20260507084650 | 24 | 219 | 19.3 | 22.5 | 0.00 | 0.00 | 0.00 | 94 | 1010.0 |
| 20260507081650 | 24 | 233 | 0.0 | 8.0 | 0.00 | 0.00 | 0.00 | 94 | 1010.6 |
| 20260507080150 | 23 | 137 | 3.2 | 14.5 | 0.00 | 0.00 | 0.00 | 94 | 1010.6 |
| 20260507074649 | 23 | 158 | 12.9 | 22.5 | 0.00 | 0.00 | 0.00 | 94 | 1010.6 |
| 20260507073149 | 23 | 177 | 8.0 | 9.7 | 0.00 | 0.00 | 0.00 | 94 | 1011.0 |
| 20260507071649 | 23 | 199 | 4.8 | 12.9 | 0.00 | 0.00 | 0.00 | 94 | 1011.1 |
| 20260507070148 | 23 | 214 | 3.2 | 8.0 | 0.00 | 0.00 | 0.00 | 94 | 1011.4 |
| 20260507064648 | 23 | 162 | 3.2 | 8.0 | 0.00 | 0.00 | 0.00 | 94 | 1011.2 |
| 20260507063148 | 23 | 174 | 4.8 | 14.5 | 0.00 | 0.00 | 0.00 | 94 | 1011.2 |
| 20260507061648 | 23 | 173 | 0.0 | 8.0 | 0.00 | 0.00 | 0.00 | 94 | 1011.3 |
| 20260507060148 | 23 | 193 | 4.8 | 9.7 | 0.00 | 0.00 | 0.00 | 94 | 1011.2 |
| 20260507054647 | 23 | 153 | 14.5 | 22.5 | 0.00 | 0.00 | 0.00 | 94 | 1011.8 |
| 20260507053148 | 23 | 161 | 8.0 | 8.0 | 0.00 | 0.00 | 0.00 | 94 | 1012.3 |
| 20260507051647 | 23 | 226 | 0.0 | 4.8 | 0.00 | 0.00 | 0.00 | 94 | 1012.0 |
| 20260507050147 | 23 | 132 | 4.8 | 4.8 | 0.00 | 0.00 | 0.00 | 94 | 1012.2 |
| 20260507044647 | 23 | 216 | 8.0 | 9.7 | 0.00 | 0.00 | 0.00 | 94 | 1011.5 |
| 20260507041647 | 23 | 153 | 3.2 | 12.9 | 0.00 | 0.00 | 0.00 | 94 | 1011.9 |
| 20260507040146 | 23 | 224 | 4.8 | 12.9 | 0.00 | 0.00 | 0.00 | 94 | 1012.2 |
| 20260507034646 | 23 | 98 | 8.0 | 17.7 | 0.00 | 0.00 | 0.00 | 93 | 1012.1 |
| 20260507033146 | 23 | 148 | 8.0 | 12.9 | 0.00 | 0.00 | 0.00 | 93 | 1011.8 |
| 20260507031646 | 23 | 179 | 4.8 | 9.7 | 0.00 | 0.00 | 0.00 | 93 | 1011.9 |
| 20260507024645 | 23 | 193 | 9.7 | 12.9 | 0.00 | 0.00 | 0.00 | 93 | 1012.5 |
| 20260507023145 | 23 | 241 | 4.8 | 17.7 | 0.00 | 0.00 | 0.00 | 93 | 1012.3 |
| 20260507021645 | 23 | 197 | 0.0 | 8.0 | 0.00 | 0.00 | 0.00 | 92 | 1012.0 |
| 20260507020144 | 23 | 197 | 4.8 | 14.5 | 0.00 | 0.00 | 0.00 | 92 | 1011.5 |
| 20260507014644 | 23 | 177 | 3.2 | 9.7 | 0.00 | 0.00 | 0.00 | 92 | 1011.4 |
| 20260507013144 | 23 | 172 | 4.8 | 14.5 | 0.00 | 0.00 | 0.00 | 91 | 1011.4 |
| 20260507011644 | 23 | 214 | 4.8 | 8.0 | 0.00 | 0.00 | 0.00 | 91 | 1011.8 |
| 20260507010144 | 23 | 176 | 3.2 | 8.0 | 0.00 | 0.00 | 0.00 | 91 | 1011.7 |
| 20260507004644 | 23 | 176 | 4.8 | 8.0 | 0.00 | 0.00 | 0.00 | 90 | 1011.9 |
| 20260507003143 | 23 | 210 | 4.8 | 9.7 | 0.00 | 0.00 | 0.00 | 90 | 1012.2 |
| 20260507001643 | 23 | 153 | 4.8 | 8.0 | 0.00 | 0.00 | 0.00 | 90 | 1012.0 |
| 20260507000143 | 23 | 184 | 14.5 | 19.3 | 0.00 | 0.00 | 0.00 | 90 | 1011.8 |
| 20260506234643 | 23 | 181 | 12.9 | 12.9 | 0.00 | 0.00 | 0.00 | 89 | 1011.8 |
| 20260506233142 | 23 | 146 | 9.7 | 9.7 | 0.00 | 0.00 | 0.00 | 89 | 1011.6 |
| 20260506230142 | 24 | 198 | 8.0 | 17.7 | 0.00 | 0.00 | 0.00 | 88 | 1011.8 |
| 20260506224642 | 24 | 155 | 3.2 | 8.0 | 0.00 | 0.00 | 0.00 | 89 | 1012.0 |
| 20260506223141 | 24 | 226 | 4.8 | 8.0 | 0.00 | 0.00 | 0.00 | 88 | 1012.1 |
| 20260506221642 | 24 | 180 | 4.8 | 14.5 | 0.00 | 0.00 | 0.00 | 88 | 1012.4 |
| 20260506220141 | 25 | 156 | 8.0 | 24.1 | 0.00 | 0.00 | 0.00 | 87 | 1012.3 |
| 20260506214641 | 25 | 197 | 9.7 | 9.7 | 0.00 | 0.00 | 0.00 | 85 | 1012.4 |
| 20260506213141 | 25 | 139 | 8.0 | 9.7 | 0.00 | 0.00 | 0.00 | 84 | 1012.5 |
| 20260506211641 | 25 | 203 | 4.8 | 12.9 | 0.00 | 0.00 | 0.00 | 84 | 1012.6 |
| 20260506210141 | 25 | 124 | 9.7 | 14.5 | 0.00 | 0.00 | 0.00 | 85 | 1012.6 |
| 20260506203140 | 25 | 169 | 4.8 | 14.5 | 0.00 | 0.00 | 0.00 | 87 | 1012.9 |
| 20260506201641 | 25 | 229 | 4.8 | 14.5 | 0.00 | 0.00 | 0.00 | 86 | 1013.3 |
| 20260506200140 | 25 | 167 | 3.2 | 3.2 | 0.00 | 0.00 | 0.00 | 86 | 1013.1 |
| 20260506194640 | 25 | 168 | 3.2 | 4.8 | 0.00 | 0.00 | 0.00 | 85 | 1013.4 |
| 20260506193140 | 25 | 200 | 0.0 | 0.0 | 0.00 | 0.00 | 0.00 | 84 | 1013.6 |
| 20260506191640 | 26 | 165 | 8.0 | 9.7 | 0.00 | 0.00 | 0.00 | 84 | 1013.9 |
| 20260506190139 | 25 | 174 | 0.0 | 4.8 | 0.00 | 0.00 | 0.00 | 85 | 1014.1 |
| 20260506184639 | 25 | 267 | 0.0 | 4.8 | 0.00 | 0.00 | 0.00 | 84 | 1014.4 |
| 20260506183139 | 26 | 232 | 3.2 | 4.8 | 0.00 | 0.00 | 0.00 | 82 | 1014.4 |
| 20260506181639 | 26 | 181 | 3.2 | 9.7 | 0.00 | 0.00 | 0.00 | 82 | 1014.4 |
| 20260506174638 | 26 | 166 | 3.2 | 12.9 | 0.00 | 0.00 | 0.00 | 82 | 1014.7 |
| 20260506173138 | 26 | 198 | 3.2 | 8.0 | 0.00 | 0.00 | 0.00 | 82 | 1014.8 |
| 20260506171638 | 25 | 155 | 0.0 | 9.7 | 0.00 | 0.00 | 0.00 | 84 | 1014.8 |